This is the latest recevied weather packets stored in our database for station/object KM4KMS. If no packets are shown the sender has not sent any weather packets the latest 10 day(s).
| Time | Temp. | Humidity | Pressure | Rain* | Wind** | Luminosity | Snow |
|---|---|---|---|---|---|---|---|
| 1777826114 | 14.44° C | 45% | 1018.9 hPa | 0 mm | - | 619 W/m² | - |
| 1777825811 | 14.44° C | 47% | 1019.1 hPa | 0 mm | - | 602 W/m² | - |
| 1777825508 | 14.44° C | 44% | 1019.2 hPa | 0 mm | - | 732 W/m² | - |
| 1777825206 | 13.89° C | 48% | 1019.3 hPa | 0 mm | - | 759 W/m² | - |
| 1777824903 | 15° C | 42% | 1019.3 hPa | 0 mm | - | 752 W/m² | - |
| 1777824598 | 13.89° C | 47% | 1019.4 hPa | 0 mm | - | 767 W/m² | - |
| 1777824296 | 15° C | 43% | 1019.4 hPa | 0 mm | - | 787 W/m² | - |
| 1777823991 | 15° C | 45% | 1019.7 hPa | 0 mm | - | 812 W/m² | - |
| 1777823688 | 14.44° C | 52% | 1019.6 hPa | 0 mm | - | 811 W/m² | - |
| 1777823385 | 13.33° C | 47% | 1019.6 hPa | 0 mm | - | 807 W/m² | - |
| 1777823083 | 13.33° C | 53% | 1019.6 hPa | 0 mm | - | 723 W/m² | - |
| 1777822780 | 13.89° C | 48% | 1019.8 hPa | 0 mm | - | 765 W/m² | - |
| 1777822478 | 13.33° C | 51% | 1019.7 hPa | 0 mm | - | 749 W/m² | - |
| 1777822175 | 13.89° C | 45% | 1019.5 hPa | 0 mm | - | 745 W/m² | - |
| 1777821872 | 13.33° C | 47% | 1019.7 hPa | 0 mm | - | 669 W/m² | - |
| 1777821570 | 13.89° C | 52% | 1019.5 hPa | 0 mm | - | 732 W/m² | - |
| 1777821268 | 13.33° C | 49% | 1019.9 hPa | 0 mm | - | 758 W/m² | - |
| 1777820965 | 12.78° C | 50% | 1019.5 hPa | 0 mm | - | 745 W/m² | - |
| 1777820661 | 13.33° C | 52% | 1019.6 hPa | 0 mm | - | 753 W/m² | - |
| 1777820357 | 13.33° C | 52% | 1019.9 hPa | 0 mm | - | 737 W/m² | - |
| 1777820055 | 13.89° C | 52% | 1019.8 hPa | 0 mm | - | 720 W/m² | - |
| 1777819751 | 13.33° C | 51% | 1019.7 hPa | 0 mm | - | 703 W/m² | - |
| 1777819450 | 12.78° C | 53% | 1019.9 hPa | 0 mm | - | 633 W/m² | - |
| 1777819148 | 12.78° C | 52% | 1019.7 hPa | 0 mm | - | 695 W/m² | - |
| 1777818844 | 12.78° C | 53% | 1019.9 hPa | 0 mm | - | 660 W/m² | - |
* Rain latest hour (hover to see other rain measurements)
** Current wind speed in m/s (hover to see current wind gust speed)